This is the latest recevied weather packets stored in our database for station/object SALIDA. If no packets are shown the sender has not sent any weather packets the latest 10 day(s).
| Time | Temp. | Humidity | Pressure | Rain* | Wind** | Luminosity | Snow |
|---|---|---|---|---|---|---|---|
| 1788575221 | 20° C | 50% | 1002 hPa | 0 mm | - | - | - |
| 1788574321 | 20° C | 49% | 1001.9 hPa | 0 mm | - | - | - |
| 1788573421 | 20.56° C | 53% | 1001.8 hPa | 0 mm | - | - | - |
| 1788572521 | 21.11° C | 51% | 1001.4 hPa | 0 mm | - | - | - |
| 1788571621 | 22.22° C | 50% | 1001.3 hPa | 0 mm | - | - | - |
| 1788570721 | 23.33° C | 45% | 1001.2 hPa | 0 mm | - | - | - |
| 1788569822 | 23.89° C | 45% | 1001.3 hPa | 0 mm | - | - | - |
| 1788568921 | 23.89° C | 43% | 1001.3 hPa | 0 mm | - | - | - |
| 1788568022 | 24.44° C | 39% | 1001.2 hPa | 0 mm | - | - | - |
| 1788567122 | 26.11° C | 35% | 1001.3 hPa | 0 mm | - | - | - |
| 1788566222 | 26.11° C | 33% | 1001.1 hPa | 0 mm | - | - | - |
| 1788565322 | 25.56° C | 33% | 1001.2 hPa | 0 mm | - | - | - |
| 1788564422 | 25° C | 35% | 1001.2 hPa | 0 mm | - | - | - |
| 1788563522 | 23.33° C | 42% | 1001.6 hPa | 0 mm | - | - | - |
| 1788562622 | 25° C | 40% | 1001.9 hPa | 0 mm | - | - | - |
| 1788561722 | 26.11° C | 33% | 1001.4 hPa | 0 mm | - | - | - |
| 1788560822 | 26.11° C | 33% | 1001.2 hPa | 0 mm | - | - | - |
| 1788559922 | 26.67° C | 32% | 1001.1 hPa | 0 mm | - | - | - |
| 1788559022 | 26.67° C | 32% | 1001.1 hPa | 0 mm | - | - | - |
| 1788558122 | 26.11° C | 34% | 1001.1 hPa | 0 mm | - | - | - |
| 1788557222 | 26.67° C | 34% | 1001.1 hPa | 0 mm | - | - | - |
| 1788556322 | 27.22° C | 32% | 1001.1 hPa | 0 mm | - | - | - |
| 1788555422 | 27.78° C | 31% | 1001.2 hPa | 0 mm | - | - | - |
| 1788554522 | 28.89° C | 30% | 1001.1 hPa | 0 mm | - | - | - |
| 1788553622 | 29.44° C | 29% | 1001.3 hPa | 0 mm | - | - | - |
* Rain latest hour (hover to see other rain measurements)
** Current wind speed in m/s (hover to see current wind gust speed)